When you browse on this site, cookies collect data to enhance your experience and personalize the content and advertising you see.
Visit our Privacy Policy to learn more. By continuing to use the site, you agree to this use of cookies and data.
  • In Spain
  • List of Countries
  • For 7 days
  • Water Temperature
  • Satellite Maps
  • Weather Map
  • Weather Widgets
  • user-avatar
    Login

    Hourly Weather Hmelevec-Kryukovo

    Today, 18 June, Tuesday

    Time Temperature Precipitation Wind Pressure Humidity
    00:00 +17°C° 0 mm 2 mps 742 mmHg 84%
    01:00 +17°C° 0 mm 2 mps 742 mmHg 86%
    02:00 +17°C° 0 mm 2 mps 742 mmHg 89%
    03:00 +16°C° 0 mm 2 mps 742 mmHg 88%
    04:00 +17°C° 0.2 mm 2 mps 741 mmHg 88%
    05:00 +17°C° 0.2 mm 2 mps 741 mmHg 89%
    06:00 +18°C° 0.2 mm 2 mps 741 mmHg 89%
    07:00 +19°C° 1.1 mm 2 mps 741 mmHg 87%
    08:00 +20°C° 1.1 mm 2 mps 741 mmHg 85%
    09:00 +21°C° 1.1 mm 2 mps 741 mmHg 83%
    10:00 +23°C° 1.1 mm 2 mps 741 mmHg 78%
    11:00 +25°C° 1.1 mm 2 mps 741 mmHg 72%
    12:00 +26°C° 1.1 mm 3 mps 741 mmHg 67%
    13:00 +26°C° 0.4 mm 3 mps 741 mmHg 67%
    14:00 +26°C° 0.4 mm 3 mps 741 mmHg 67%
    15:00 +26°C° 0.4 mm 4 mps 741 mmHg 68%
    16:00 +26°C° 0.5 mm 3 mps 741 mmHg 71%
    17:00 +25°C° 0.5 mm 3 mps 741 mmHg 73%
    18:00 +25°C° 0.5 mm 3 mps 741 mmHg 76%
    19:00 +22°C° 0.2 mm 3 mps 741 mmHg 79%
    20:00 +21°C° 0.2 mm 2 mps 741 mmHg 82%
    21:00 +19°C° 0.2 mm 2 mps 741 mmHg 85%
    22:00 +18°C° 0 mm 2 mps 741 mmHg 86%
    23:00 +18°C° 0 mm 2 mps 741 mmHg 87%

    Tomorrow, 19 June, Wednesday

    Time Temperature Precipitation Wind Pressure Humidity
    00:00 +17°C° 0 mm 3 mps 742 mmHg 88%
    01:00 +16°C° 0 mm 3 mps 742 mmHg 88%
    02:00 +16°C° 0 mm 3 mps 742 mmHg 89%
    03:00 +14°C° 0 mm 3 mps 742 mmHg 90%
    04:00 +16°C° 0 mm 3 mps 742 mmHg 89%
    05:00 +16°C° 0 mm 3 mps 743 mmHg 88%
    06:00 +16°C° 0 mm 2 mps 743 mmHg 87%
    07:00 +18°C° 0 mm 3 mps 743 mmHg 82%
    08:00 +19°C° 0 mm 3 mps 743 mmHg 77%
    09:00 +21°C° 0 mm 3 mps 743 mmHg 72%
    10:00 +22°C° 0 mm 3 mps 743 mmHg 66%
    11:00 +24°C° 0 mm 3 mps 744 mmHg 61%
    12:00 +25°C° 0 mm 3 mps 744 mmHg 55%
    13:00 +25°C° 0 mm 3 mps 744 mmHg 54%
    14:00 +26°C° 0 mm 3 mps 744 mmHg 54%
    15:00 +26°C° 0 mm 3 mps 744 mmHg 54%
    16:00 +26°C° 0 mm 2 mps 743 mmHg 57%
    17:00 +26°C° 0 mm 2 mps 743 mmHg 61%
    18:00 +26°C° 0 mm 2 mps 743 mmHg 64%
    19:00 +24°C° 0 mm 1 mps 743 mmHg 69%
    20:00 +22°C° 0 mm 1 mps 743 mmHg 73%
    21:00 +18°C° 0 mm 0 mps 743 mmHg 78%
    22:00 +19°C° 0 mm 1 mps 744 mmHg 79%
    23:00 +19°C° 0 mm 1 mps 744 mmHg 80%

    Day after tomorrow, 20 June, Thursday

    Time Temperature Precipitation Wind Pressure Humidity
    00:00 +18°C° 0 mm 1 mps 744 mmHg 81%
    01:00 +18°C° 0 mm 1 mps 744 mmHg 82%
    02:00 +16°C° 0 mm 1 mps 744 mmHg 83%
    03:00 +16°C° 0 mm 1 mps 744 mmHg 84%
    04:00 +18°C° 0 mm 1 mps 744 mmHg 83%
    05:00 +18°C° 0 mm 1 mps 745 mmHg 82%
    06:00 +19°C° 0 mm 1 mps 745 mmHg 81%
    07:00 +21°C° 0 mm 1 mps 745 mmHg 77%
    08:00 +22°C° 0 mm 1 mps 745 mmHg 72%
    09:00 +24°C° 0 mm 1 mps 745 mmHg 67%
    10:00 +23°C° 0 mm 0 mps 745 mmHg 62%
    11:00 +24°C° 0 mm 0 mps 745 mmHg 57%
    12:00 +25°C° 0 mm 0 mps 745 mmHg 52%
    13:00 +25°C° 0 mm 0 mps 745 mmHg 51%
    14:00 +26°C° 0 mm 0 mps 745 mmHg 50%
    15:00 +26°C° 0 mm 0 mps 745 mmHg 48%
    16:00 +26°C° 0 mm 0 mps 744 mmHg 52%
    17:00 +26°C° 0 mm 0 mps 744 mmHg 55%
    18:00 +25°C° 0 mm 0 mps 744 mmHg 59%
    19:00 +25°C° 0 mm 1 mps 744 mmHg 62%
    20:00 +23°C° 0 mm 1 mps 744 mmHg 65%
    21:00 +21°C° 0 mm 1 mps 744 mmHg 68%
    22:00 +21°C° 0 mm 1 mps 744 mmHg 71%
    23:00 +20°C° 0 mm 1 mps 745 mmHg 74%

    21 June, Friday

    Time Temperature Precipitation Wind Pressure Humidity
    00:00 +18°C° 0 mm 2 mps 745 mmHg 77%
    01:00 +19°C° 0 mm 1 mps 745 mmHg 79%
    02:00 +18°C° 0 mm 1 mps 745 mmHg 81%
    03:00 +18°C° 0 mm 1 mps 745 mmHg 84%
    04:00 +19°C° 0 mm 1 mps 745 mmHg 83%
    05:00 +19°C° 0 mm 1 mps 745 mmHg 82%
    06:00 +20°C° 0 mm 1 mps 745 mmHg 82%
    07:00 +22°C° 0 mm 1 mps 745 mmHg 77%
    08:00 +23°C° 0 mm 1 mps 746 mmHg 72%
    09:00 +25°C° 0 mm 2 mps 746 mmHg 67%
    10:00 +25°C° 0 mm 2 mps 746 mmHg 63%
    11:00 +26°C° 0 mm 2 mps 746 mmHg 59%
    12:00 +27°C° 0 mm 2 mps 746 mmHg 55%
    13:00 +27°C° 0 mm 2 mps 746 mmHg 55%
    14:00 +27°C° 0 mm 2 mps 745 mmHg 55%
    15:00 +27°C° 0 mm 2 mps 745 mmHg 55%
    16:00 +27°C° 0 mm 2 mps 745 mmHg 59%
    17:00 +27°C° 0 mm 2 mps 745 mmHg 64%
    18:00 +27°C° 0 mm 2 mps 745 mmHg 68%
    19:00 +25°C° 0 mm 2 mps 745 mmHg 71%
    20:00 +24°C° 0 mm 2 mps 745 mmHg 75%
    21:00 +21°C° 0 mm 2 mps 745 mmHg 78%
    22:00 +20°C° 0 mm 2 mps 745 mmHg 79%
    23:00 +20°C° 0 mm 2 mps 745 mmHg 80%

    22 June, Saturday

    Time Temperature Precipitation Wind Pressure Humidity
    00:00 +19°C° 0 mm 2 mps 745 mmHg 81%
    01:00 +19°C° 0 mm 2 mps 745 mmHg 82%
    02:00 +18°C° 0 mm 2 mps 745 mmHg 83%
    03:00 +18°C° 0 mm 2 mps 745 mmHg 85%
    04:00 +18°C° 0 mm 2 mps 745 mmHg 84%
    05:00 +19°C° 0 mm 2 mps 745 mmHg 83%
    06:00 +19°C° 0 mm 2 mps 745 mmHg 83%
    07:00 +21°C° 0 mm 3 mps 745 mmHg 79%
    08:00 +22°C° 0 mm 3 mps 745 mmHg 76%
    09:00 +25°C° 0 mm 3 mps 745 mmHg 73%
    10:00 +26°C° 0 mm 4 mps 745 mmHg 69%
    11:00 +27°C° 0 mm 4 mps 745 mmHg 65%
    12:00 +28°C° 0 mm 4 mps 745 mmHg 60%
    13:00 +28°C° 0 mm 4 mps 745 mmHg 60%
    14:00 +28°C° 0 mm 5 mps 745 mmHg 60%
    15:00 +29°C° 0 mm 5 mps 744 mmHg 60%
    16:00 +28°C° 0 mm 4 mps 744 mmHg 64%
    17:00 +28°C° 0 mm 4 mps 744 mmHg 68%
    18:00 +27°C° 0 mm 3 mps 744 mmHg 72%
    19:00 +26°C° 0 mm 3 mps 744 mmHg 76%
    20:00 +25°C° 0 mm 3 mps 744 mmHg 80%
    21:00 +22°C° 0 mm 3 mps 744 mmHg 84%
    22:00 +21°C° 0 mm 3 mps 744 mmHg 86%
    23:00 +21°C° 0 mm 3 mps 744 mmHg 87%

    23 June, Sunday

    Time Temperature Precipitation Wind Pressure Humidity
    00:00 +20°C° 0 mm 3 mps 744 mmHg 88%
    01:00 +20°C° 0 mm 3 mps 744 mmHg 90%
    02:00 +19°C° 0 mm 3 mps 744 mmHg 91%
    03:00 +19°C° 0 mm 3 mps 744 mmHg 92%
    04:00 +20°C° 0 mm 3 mps 744 mmHg 91%
    05:00 +20°C° 0 mm 2 mps 745 mmHg 90%
    06:00 +21°C° 0 mm 2 mps 745 mmHg 89%
    07:00 +23°C° 0 mm 2 mps 745 mmHg 83%
    08:00 +25°C° 0 mm 2 mps 745 mmHg 77%
    09:00 +27°C° 0 mm 3 mps 745 mmHg 72%
    10:00 +28°C° 0.1 mm 3 mps 745 mmHg 68%
    11:00 +28°C° 0.1 mm 3 mps 745 mmHg 64%
    12:00 +29°C° 0.1 mm 3 mps 745 mmHg 60%
    13:00 +29°C° 0.1 mm 4 mps 745 mmHg 59%
    14:00 +30°C° 0.1 mm 4 mps 745 mmHg 58%
    15:00 +30°C° 0.1 mm 4 mps 745 mmHg 57%
    16:00 +30°C° 0 mm 3 mps 744 mmHg 61%
    17:00 +29°C° 0 mm 3 mps 744 mmHg 66%
    18:00 +29°C° 0 mm 2 mps 744 mmHg 70%
    19:00 +27°C° 0 mm 2 mps 744 mmHg 73%
    20:00 +26°C° 0 mm 2 mps 744 mmHg 76%
    21:00 +24°C° 0 mm 2 mps 744 mmHg 79%
    22:00 +23°C° 0 mm 2 mps 744 mmHg 79%
    23:00 +23°C° 0 mm 2 mps 744 mmHg 80%
    Show more